Retour au catalogue

LEMUR 2 LEIA-PHILIP

ActifScienceSSO
NORAD 63246·PAYLOAD·🇺🇸 United States

Lancé Mar 15, 2025 depuis Vandenberg Space Force Base

Loading…

Prochains Passages (prochaines 24 heures)

TLE

FraisSource: Space-Track

Époque: Sep 14, 2026, 03:27 UTC

1 63246U 25052AN  26257.14400333  .00001885  00000-0  16628-3 0  9993
2 63246  97.6693 147.5481 0002847 308.2393  51.8573 14.97597837 81987

Suivez LEMUR 2 LEIA-PHILIP en temps réel avec AllMySat

Download on the App Store